Espace membre
Imprimable
Challenges > Delhalle - Butgenbach, 30/04/2011, BEL - Rund um den See
Liste des rapports > Delhalle - 21,1km - Classement
Recherche: Page: [1]
81 Entrées
 
Les réclamations ne sont plus acceptées, les résultats sont considérés comme définitifs.
RangNrNomAgeIOCLigueEquipeRéelTempsTkmMoy.ScrPtsLocalité
1.2013HILGER-SCHÜTZ Jerome36BELAC EIFEL/SC BÜTGENBACH1:12:111:12:123:27 17.4511100SCHOENBERG
2.2352MATIRI Leonard32BELAC EIFEL1:14:051:14:053:32 17.0121072
3.2016KALK Nils28BELTRIATHLON TEAM EUPEN1:16:291:16:303:39 16.4741037KETTENIS
4.644POCHET Anthony28BEL1:16:551:16:563:40 16.3851030BEAURAING
5.2237KAERS Pascal39BELVALDCLA - DARING CLUB LEUVEN1:17:071:17:073:41 16.3461026BEGIJNENDIJK
6.9PASQUE Cedric32BELRRTC1:17:101:17:103:41 16.3371025BOUFFIOULX
7.2063LANGER Pascal34BEL1:17:401:17:403:42 16.2281017ELSENBORN
8.2058SMOLKA Bernd38BELSV BERGWACHT ROHREN1:20:151:20:153:50 15.7010982
9.2069LANGER Stephan35BEL1:20:291:20:293:50 15.6611978ELSENBORN
10.2256RENARD Arnaud26BELACO1:21:201:21:213:53 15.4913965REMICOURT
11.2045TOELANTS Stefan39BEL1:22:131:22:163:56 15.3215952BRASSCHAAT
12.2348SCHWALL Stephen28BELEMMELS1:24:521:24:554:03 14.8425910
13.2292DEWALLEF Pascal Jean37BELTCBM1:26:551:27:104:10 14.4628882BLEGNY
14.2289MORTEZAI Azad39BELEUPEN1:27:291:27:314:11 14.4032872
15.2011HEINEN Danny39BELFC BÜTGENBACH1:28:191:28:194:13 14.2734861NIDRUM
16.2361MARCHAL Yves29BEL1:28:461:28:494:14 14.1936853EUPEN
17.2349JACOBS Mario36BELULTRAS1:28:471:28:504:14 14.1937852
18.2064JAMAR Christophe30BEL1:28:531:29:014:15 14.1640848WAIMES
19.2047VANHERCK Kris36BEL1:29:011:29:044:15 14.1541846DEURNE
20.2323BOUMANS Eric32BEL1:29:031:29:124:15 14.1342844VERVIERS
21.2234JACQMIN Damien32BEL1:29:241:29:254:16 14.0943839BASTOGNE
22.2019MERTENS Andy30BELTRIATHLON TEAM EUPEN1:29:451:29:484:17 14.0345833EUPEN
23.2387THERER Gery21BEL1:31:011:31:054:21 13.8351813
24.2339PAASCH Daniel31BEL1:31:041:31:064:21 13.8352812LUXEMBOURG
25.2384GERRETZ Dominik27BEL1:32:111:32:154:24 13.6658794
26.2259ROELANTS Pieter31BELHRC1:32:161:32:224:24 13.6459792KESSEL-LO
27.2057MERO Thorsten38BEL1:32:481:32:504:26 13.5761784
28.2375EVRARD Marc39BEL1:34:061:34:134:30 13.3768763WANDRE
29.2208BREUZIN Theophane22FRA1:35:351:35:384:34 13.1873742LIEGE
30.2359MELARD Jean Emile29BEL1:36:181:36:314:36 13.0680729B-4680 OUPEYE
31.2052HANF Alain30BELTV NIDRUM1:36:471:36:514:37 13.0182721NIDRUM
32.2333HALMES Manuel26BELSC BUTGENBACH1:36:491:36:514:37 13.0183720BÜLLINGEN
33.2263SCHOLL Michael35BEL1:37:331:37:384:39 12.9186709ELSENBORN
34.365DESCHUYTENEER Marc32LUXTORTUES1:38:211:38:254:42 12.8090697LUXEMBOURG
35.331BOUCHET Davy25BELHRC1:38:321:38:374:42 12.7892694IZEL
36.2358BALTUS Daniel32BEL1:38:401:38:524:43 12.7495690
37.802NEUMANS Jean Luc33BELGERP & CO1:38:391:38:564:43 12.7496689CHARLEROI
38.695DE DAPPER David38BELCSFMYSTERE1:39:221:39:234:44 12.68100678BRUXELLES
39.2337TOUSSAINT Amaury35BELBAIL RUN1:39:351:39:464:46 12.63102673NIVELLES
40.2354DE DEKEN Olivier25BEL1:40:021:40:224:47 12.56107664
41.827RENAUX Olivier38BEL1:40:561:41:094:49 12.46110652HENSIES
42.2032SCHNEIDER Roland35BELTV NIDRUM1:41:081:41:114:50 12.45111649NIDRUM
43.2353LEJEUNE Gregory31BEL1:41:251:41:304:50 12.41114643VIELSALM
44.2049LANNOYE Dirk38BEL1:41:311:41:364:51 12.40115641HOBOKEN
45.601DEMOULIN Laurent38BELBAIL RUN1:41:401:41:514:51 12.37117638SAINT SERVAIS
46.2374PIRSON Fabien38BEL1:42:141:42:224:53 12.31119631
47.904VAN LANGENHOVE Denis34BEL1:42:231:42:234:53 12.31120628FLORENNE
48.2209BROUWIER Michael35BELHERV1:42:351:42:454:54 12.26125622GRAND-RECHAIN
49.2386BOEMER Mirko33BEL1:42:351:42:494:54 12.26127620
50.2251NOEL Frederic36BELACLO1:42:541:43:004:55 12.23128616LE ROEULX
51.2377VERCRUYSSE Sebastien36BEL1:44:091:44:244:59 12.07145588
52.2345MAAS Stijn34BEL1:44:201:44:254:59 12.07146585HAMONT-ACHEL
53.862GIROULLE Lionel35BEL1:44:251:44:314:59 12.06147583WANFERCÉE BAULET
54.2327HORNAY Olivier39BELETHIAS1:44:131:44:344:59 12.05148584
55.833PISVIN Miguel39BEL1:44:321:44:575:00 12.01154575ROTHEUX-RIMIERE
56.686VAN ONACKER Michael36BELADDM1:45:061:45:185:01 11.97157567LESSINES
57.2004BRÜLS Gerd34BEL1:45:021:45:255:02 11.95158567LONTZEN
58.2012HERMANN Sascha38BEL1:45:431:45:565:03 11.90160558BETTEMBOURG
59.2357PLUMACHER Thierry33BEL1:46:081:46:225:04 11.85164550
60.2321VOIGTLANDER Thomas34BEL1:46:291:46:385:05 11.82165546
61.2324BONTEMS Christophe39BEL1:49:081:49:305:13 11.51189499FERNELMONT
62.2216DEJAEGHERE Bernard38BELYAK1:49:551:50:125:15 11.44196485MEEFFE
63.2233HOUYOUX Regis34BEL1:50:031:50:145:15 11.43197483BOSSIÈRE
64.2266SCHULZ Daniel34DEU1:50:111:50:235:16 11.42199480KÖLN
65.2255RELEKOM Olivier39BEL1:50:271:50:495:17 11.37203473HUY
66.2368WANSART Nicolas29BEL1:50:311:50:525:17 11.37204472
67.2201ANDRES Michael33BEL1:51:301:51:405:20 11.28211456NAMUR
68.2382KOLP Vincent24BEL1:51:111:51:415:20 11.28212458
69.820BIENFAIT Quentin33BEL1:54:211:54:405:28 10.99232411BRAY
70.2370PAULIS Rene35LUX1:54:321:54:445:28 10.98233408HOLDANGE
71.2383MARX Joel21BEL1:55:561:56:025:32 10.86239390
72.2061SCHIRMER Karsten35BELHOEFEN1:56:291:56:445:34 10.79243382
73.2288RENAP Bert37BEL1:56:431:57:015:35 10.77245378ST.-ANTONIUS
74.2350FLORENCE Cedric31BEL1:58:101:58:345:39 10.63254357TROOZ
75.2391HICK Patrick31BEL2:00:182:00:435:45 10.44266327
76.2246MIGNOT Benoit32BEL2:01:132:01:225:47 10.38267318SAIVE
77.784BIENFAIT Benjamin28BEL2:05:162:05:355:59 10.03295259QUEVY LE PETIT
78.2268SIECKELINCK Kevin28BEL2:11:292:11:486:17 9.56312193MECHELEN
79.2274TRICOT Alain38BELZEN-ITUDE2:12:402:13:006:20 9.47320176MORLANWELZ
80.2050PAULUS Benoit26BELRCNAMUR2:21:342:21:506:46 8.8834091SAINT-SERVAIS
DNF445RUELLE Jean39BELETCHIEVRWEZEMBEEK-OPPEM
DNF: abandon; DSQ: disqualifié; Vitesse en km/h
Page: [1]